Location: Chapel Hill
(35.9134°N, 79.0560°W)
Time: 04:20:04
(UTC-04:00)

ACS3 Solar Sail - Pass Details

Date: 27 June 2024
Orbit: 993 x 1022 km, 97.4° (Epoch: 23 July)

Event Time Altitude Azimuth Distance (km) Brightness Sun altitude
Exits shadow 21:54:58 18° 122° (ESE) 2,233 6.1 -13.6°
Maximum altitude 21:58:45 34° 70° (ENE) 1,590 5.7 -14.2°
Drops below altitude 10° 22:04:13 10° 8° (N) 2,763 7.7 -15.0°
Sets 22:06:55 0° 360° (N) 3,715 8.6 -15.3°
